Regional Weather Roundup
Issued by NWS Sioux Falls, SD

Home | Current Version | Previous Version | Text Only | Print | Product List | Glossary On
Versions: 1 2 3 4 5 6 7 8 9 10 11 12 13 14 15 16 17 18 19 20 21 22 23 24 25 26 27 28 29 30 31 32 33 34 35 36 37 38 39 40 41 42 43 44 45 46 47 48 49 50
000
ASUS43 KFSD 231910
RWRFSD

WEATHER ROUNDUP FOR SE SOUTH DAKOTA/SW MINNESOTA/NW IOWA
NATIONAL WEATHER SERVICE SIOUX FALLS SD
100 PM CST MON JAN 23 2017

NOTE: "FAIR" INDICATES FEW OR NO CLOUDS BELOW 12,000 FEET WITH NO
SIGNIFICANT WEATHER AND OR OBSTRUCTIONS TO VISIBILITY.


SDZ038>040-050-052>070-232000-
SOUTHEAST SOUTH DAKOTA

CITY           SKY/WX    TMP DP  RH WIND       PRES   REMARKS
BROOKINGS      CLOUDY    29  26  89 CALM      29.80
CHAMBERLAIN    PTSUNNY   33  30  87 SE8       29.75F WCI  26
HURON          CLOUDY    31  26  82 VRB3      29.79F
MADISON        CLOUDY    28  28 100 N5          N/A  WCI  23
MITCHELL       PTSUNNY   33  27  78 SE3       29.80F
SIOUX FALLS    CLOUDY    31  27  85 CALM      29.81F
WINNER         CLOUDY    33  29  85 SE10      29.71  WCI  25
YANKTON        CLOUDY    30  25  80 SE5       29.81F WCI  25
$$

MNZ071-072-080-081-089-090-097-098-232000-
SOUTHWEST MINNESOTA

CITY           SKY/WX    TMP DP  RH WIND       PRES   REMARKS
FAIRMONT       MIX PCPN  32  30  92 N7        29.84F FOG     WCI  26
JACKSON        CLOUDY    32  28  86 NW6       29.83F WCI  26
LUVERNE        CLOUDY    30  27  86 W5        29.84F WCI  25
MARSHALL       CLOUDY    31  27  85 NW5       29.84F WCI  26
MONTEVIDEO     CLOUDY    34  34 100 N3        29.84F
PIPESTONE      CLOUDY    30  28  93 CALM      29.81S FOG
REDWOOD FALLS  CLOUDY    33  28  81 NW6       29.83F WCI  28
TRACY          CLOUDY    32  29  90 W3        29.83F
WINDOM         CLOUDY    32  28  86 NW6       29.82F WCI  26
WORTHINGTON    CLOUDY    30  28  92 NW8       29.84S WCI  22
$$

IAZ001>003-012>014-020>022-031-032-NEZ013-014-SDZ071-232000-
NORTHWEST IOWA

CITY           SKY/WX    TMP DP  RH WIND       PRES   REMARKS
CHEROKEE       CLOUDY    32  30  93 W3        29.85F
DENISON        CLOUDY    32  28  86 CALM      29.84F
ESTHERVILLE    CLOUDY    31  30  96 CALM      29.82F
LE MARS        CLOUDY    32  28  86 CALM      29.85F
ORANGE CITY    CLOUDY    30  28  93 CALM      29.83F
SHELDON        CLOUDY    30  30 100 W5        29.83F WCI  25
SIOUX CITY     CLOUDY    34  28  79 CALM      29.84F
SPENCER          N/A     32  29  88 W8        29.85  WCI  25
STORM LAKE     CLOUDY    32  30  93 W7        29.84F WCI  26
$$

ABBREVIATIONS USED IN REMARKS
   TC - TEMPERATURE IN CELSIUS
  WCI - WIND CHILL INDEX
   HX - HEAT INDEX
  VSB - VISIBILITY





USA.gov is the U.S. government's official web portal to all federal, state and local government web resources and services.